Location: Hains Lake
(37.8540°N, 99.8578°W)
Time: 20:29:52
(UTC+00:00)

Vanguard 1 - Pass Details

Date: 02 December 2022
Orbit: 650 x 3831 km, 34.2° (Epoch: 05 February)

Event Time Altitude Azimuth Distance (km) Brightness Sun altitude
Exits shadow 10:16:42 24° 172° (S) 2,530 12.1 -39.0°
Drops below altitude 10° 10:22:15 10° 146° (SE) 4,136 13.5 -37.9°
Sets 10:27:15 0° 137° (SE) 5,718 14.5 -36.9°
